Dewpoint
60 60 59 60 59 59 58 58 58 57 57 58 58 58 58 57 57 58 56 57 57 57 56 55 53 54 53 52 52 53 53 54 55 55 53 53 54 53 52 52 50 52 53 54 54 56 57 56 57 57 57 57 57 57 55 54 54 53 51 49 49 50 47 46 41 42 46 49 45 39 41 43 40 40 40 45 46 45 45 44 46 47 46 45 44
60 59 59 60 59 59 59 58 57 56 58 58 58 57 57 57 58 56 57 56 56 55 54 55 54 53 51 51 53 51 51 52 53 54 51 53 54 55 54 52 51 52 54 51 54 54 57 56 54 56 55 55 57 54 54 53 50 48 48 48 46 48 50 43 41 41 44 46 45 46 46 45 38 43 45 47 48 46 41 43 45 43 43 43 40
60 59 60 59 59 59 58 58 57 57 57 57 57 56 57 58 56 57 56 55 56 55 55 54 53 52 51 52 51 52 50 51 54 54 54 52 50 53 56 54 52 53 53 52 48 51 54 56 56 56 56 56 57 55 55 53 50 47 48 47 46 47 44 44 44 43 43 44 47 43 44 45 46 40 43 46 47 45 41 43 41 40 41 42 38
60 59 59 59 59 59 58 58 57 57 57 56 57 56 56 57 56 56 55 55 54 56 55 53 53 53 52 51 51 51 52 53 52 51 49 50 49 49 51 54 53 52 51 49 49 52 53 54 55 56 56 57 56 55 55 55 54 51 50 50 50 48 49 49 45 45 44 43 44 40 44 45 45 43 43 45 46 44 42 42 41 37 36 35 38
59 59 59 59 59 59 59 58 58 57 57 57 57 56 56 56 56 54 56 55 55 54 54 54 53 51 53 50 50 51 51 51 51 52 53 53 51 52 51 51 54 53 55 54 56 53 54 54 52 53 56 56 56 55 54 55 52 53 52 48 48 49 49 46 45 46 45 44 46 46 47 46 44 44 42 42 43 43 42 43 40 38 40 39 36
59 58 59 59 59 59 59 59 58 57 57 57 56 56 56 56 56 56 54 54 55 55 53 53 51 50 50 49 49 50 50 51 49 49 50 53 55 56 55 54 54 54 55 54 52 54 54 54 55 53 53 54 55 56 55 55 53 53 52 49 47 48 49 48 46 46 45 45 46 46 47 45 45 46 44 44 43 42 41 42 41 39 40 41 40
59 58 58 58 58 58 58 58 59 57 57 57 56 55 55 56 55 54 55 55 55 54 54 52 54 51 50 52 51 52 52 52 54 55 53 53 54 54 57 57 56 57 57 55 56 57 55 54 56 56 54 53 54 54 55 56 55 54 53 53 49 49 50 47 44 45 47 47 45 45 46 48 48 45 43 44 43 43 44 43 42 40 43 42 40
58 57 58 58 58 58 59 60 59 58 57 56 56 56 55 56 55 56 55 55 55 53 52 52 54 53 54 52 53 55 56 55 55 56 55 56 57 57 57 58 57 57 59 58 59 58 57 56 56 55 55 54 54 55 55 54 54 54 54 53 52 51 50 49 48 45 45 46 45 45 44 45 47 47 43 45 44 43 41 44 43 42 42 42 44
57 57 57 57 57 58 59 59 58 58 56 55 55 55 55 56 55 55 56 56 57 54 54 54 53 53 53 55 55 57 56 57 59 59 58 57 59 58 57 56 57 57 58 58 59 59 58 59 58 57 59 55 52 53 53 53 54 53 54 53 52 51 51 49 47 45 45 46 46 47 45 45 45 46 44 44 43 43 46 47 45 44 41 40 38
56 56 56 57 57 57 59 58 59 59 58 56 56 56 56 56 56 55 55 54 55 56 55 55 54 54 54 55 58 59 58 58 55 52 53 57 58 59 59 59 57 57 58 58 59 59 59 59 60 57 54 52 50 47 46 47 49 53 54 53 52 51 50 49 47 46 46 46 45 46 44 45 46 47 46 47 48 47 45 45 44 43 43 42 40
56 55 55 55 56 56 56 56 58 58 58 57 58 56 56 58 57 55 56 55 56 55 56 54 55 55 54 56 58 59 59 58 50 47 47 49 57 59 58 58 58 58 58 59 58 59 58 56 58 56 54 51 50 43 44 44 45 46 47 49 50 52 51 51 48 49 45 45 47 46 45 47 48 48 48 47 47 45 44 45 44 42 42 41 39
55 55 55 55 56 55 55 55 55 55 55 55 56 56 57 57 57 56 57 57 56 56 56 55 55 56 56 56 58 59 59 49 45 45 45 45 49 59 59 58 58 57 57 57 58 58 58 58 57 58 57 55 53 51 46 41 41 41 42 42 43 43 45 52 52 51 50 48 49 48 49 49 48 48 46 45 45 45 44 44 43 42 42 41 40
54 55 56 56 56 57 56 55 55 55 55 56 55 55 56 57 57 57 57 57 57 56 56 57 57 57 57 56 57 57 57 45 44 43 44 43 42 48 57 59 58 58 57 57 57 58 58 57 57 57 53 52 51 52 51 48 41 41 41 42 41 40 40 42 43 54 52 51 50 50 49 49 48 47 47 46 45 44 42 39 41 40 40 39 36
47 50 52 54 55 55 55 55 55 55 56 56 56 56 56 56 56 57 58 58 58 57 57 58 58 57 58 57 57 57 56 45 43 42 43 42 42 44 57 59 59 58 58 58 58 58 58 57 56 56 55 53 53 53 52 51 50 50 51 51 50 47 43 42 42 43 49 53 52 51 51 50 47 48 48 47 45 43 41 40 41 39 39 40 42
41 42 43 46 51 54 55 55 55 54 54 55 55 55 55 55 55 54 57 58 58 58 58 57 57 57 58 58 58 58 55 41 42 42 42 41 41 40 56 58 58 58 59 59 59 59 58 58 57 56 55 54 53 52 52 52 52 52 51 51 50 50 50 50 52 52 52 54 53 53 51 50 49 47 46 46 47 46 45 43 42 43 43 43 42
40 40 39 41 40 41 45 48 49 52 54 55 55 55 54 54 54 54 55 56 56 57 57 57 57 57 57 57 57 57 54 40 41 41 41 41 40 51 55 57 57 57 57 58 58 58 57 57 56 56 55 54 48 44 47 51 52 51 49 49 48 47 44 39 39 41 53 53 52 50 50 52 45 47 45 43 42 43 40 41 41 42 39 38 37
37 39 38 41 40 39 39 41 43 45 48 50 52 53 54 54 54 55 56 56 56 57 56 56 56 56 56 57 57 57 56 45 40 41 41 40 44 54 55 55 56 57 58 57 57 57 57 56 56 55 54 53 44 40 42 45 51 50 49 50 49 46 43 41 37 37 37 37 37 37 36 36 36 36 37 39 41 41 39 39 39 39 38 36 38
35 36 36 37 38 38 38 38 38 40 42 45 48 52 53 54 54 55 56 56 56 55 55 56 55 55 56 56 56 57 57 49 39 40 40 39 45 54 54 55 56 56 56 56 56 56 56 53 53 54 53 52 40 39 40 48 51 50 48 47 45 44 42 42 39 38 36 36 36 36 36 36 36 37 37 37 37 40 42 38 40 38 38 37 33
35 35 36 36 37 38 39 39 39 39 39 41 43 46 49 51 53 55 55 55 55 55 55 55 55 54 55 55 52 55 56 49 39 40 40 39 46 52 53 54 55 56 55 55 55 52 54 52 49 50 52 49 39 39 39 46 52 50 49 47 46 43 42 42 42 39 39 39 39 39 39 41 42 41 42 38 39 41 44 42 40 39 35 35 35
34 35 35 36 37 38 39 40 40 39 39 40 41 42 43 45 48 50 50 50 50 51 52 54 54 54 54 54 54 54 54 54 46 38 40 39 40 51 53 52 53 55 54 54 53 54 54 54 50 43 43 40 38 38 38 43 51 50 48 48 46 43 43 43 42 41 41 41 42 42 42 42 42 42 42 43 43 43 43 42 40 38 36 34 34
35 36 35 35 36 37 38 39 41 40 40 40 41 41 42 43 45 46 47 48 48 49 50 51 52 52 52 53 53 54 53 53 50 40 39 39 38 41 52 53 54 54 54 52 53 54 53 52 53 45 40 39 38 38 38 40 43 49 49 48 47 44 41 44 43 41 43 42 41 40 40 40 41 41 41 40 39 39 38 40 39 38 36 33 31
35 34 34 34 36 36 37 39 41 41 41 41 41 40 41 42 43 44 44 46 48 48 49 50 51 52 52 53 53 53 51 47 51 40 38 38 38 38 48 52 52 53 52 51 52 53 54 54 53 47 40 38 37 37 38 38 39 47 53 37 36 38 44 43 43 43 41 40 39 38 38 38 38 39 38 37 37 38 38 38 38 38 36 36 34
34 34 35 35 35 36 37 38 39 39 40 41 40 40 40 41 42 43 44 43 45 45 46 47 47 47 49 49 51 51 51 49 40 45 38 38 38 38 39 44 40 50 51 51 52 52 53 52 52 43 38 37 37 37 37 37 39 46 35 36 36 38 40 42 41 42 40 39 40 39 38 38 37 36 35 35 37 38 36 37 36 35 35 35 35
34 35 35 35 35 34 34 35 37 37 38 39 39 39 40 40 40 41 42 41 39 39 39 42 41 40 40 44 47 48 49 49 40 38 41 37 37 37 37 37 39 49 51 51 51 49 49 50 47 38 37 37 37 37 37 37 43 36 35 36 36 37 41 41 42 41 39 38 39 38 38 36 35 35 34 36 35 37 36 36 35 35 35 35 34
35 34 34 34 34 32 34 34 35 35 36 36 37 36 38 39 37 38 40 40 41 39 40 40 40 41 41 43 44 46 47 46 47 41 37 37 37 37 37 37 38 39 48 48 47 47 39 36 36 36 36 37 37 37 37 38 35 35 35 36 39 41 41 40 40 40 38 38 37 38 36 36 35 36 37 38 37 36 35 36 36 35 35 34 34
34 34 33 33 33 31 33 33 33 35 35 34 35 35 36 36 36 37 38 39 40 40 40 40 40 41 40 41 43 44 46 45 46 46 41 41 39 38 38 38 38 38 40 40 36 35 35 35 35 36 37 38 42 43 43 41 35 35 35 37 41 39 39 39 39 39 38 36 35 35 35 34 34 38 38 36 34 32 33 32 32 32 34 32 31
34 34 34 33 34 34 34 33 33 34 34 34 34 34 34 35 36 35 36 37 38 38 39 40 40 41 43 44 45 45 45 46 47 45 45 45 44 45 44 41 38 38 41 41 39 40 38 39 37 35 36 35 36 36 37 36 37 38 38 40 40 39 40 39 39 39 37 35 35 34 34 35 36 35 34 33 32 33 32 31 30 30 32 31 31
34 34 34 34 33 33 33 32 32 32 33 33 32 32 33 34 34 34 34 36 36 37 37 38 38 40 41 42 43 43 45 45 45 46 47 46 47 46 47 47 46 44 42 42 41 39 37 35 38 41 40 40 40 40 41 41 36 36 38 38 38 38 38 37 38 39 37 36 34 35 34 35 33 34 34 32 31 30 32 31 31 30 30 32 31
34 34 33 33 33 33 33 33 32 32 33 33 33 33 32 33 34 35 38 35 35 36 37 39 40 41 41 41 41 42 43 44 46 39 43 39 41 47 48 46 46 46 42 38 39 39 38 36 36 36 34 33 33 36 39 40 36 37 39 38 37 37 38 36 37 37 36 36 36 35 35 37 34 33 32 31 32 32 32 31 32 32 31 31 29
33 33 33 33 33 32 33 32 32 33 32 32 33 34 31 32 32 33 34 34 34 34 34 37 38 38 40 42 43 40 41 41 38 37 38 38 37 37 38 39 38 41 37 36 40 38 36 34 35 33 34 33 32 32 33 34 33 33 34 34 35 35 37 36 37 36 35 36 35 34 34 34 33 32 31 30 31 31 32 31 32 32 31 30 28
32 32 32 32 32 33 32 32 33 32 33 33 34 33 34 35 32 32 32 34 34 34 34 35 35 35 37 38 39 38 37 36 36 37 37 38 37 37 37 36 36 35 35 35 36 34 33 32 33 34 34 37 33 34 33 33 32 32 34 34 34 35 33 34 34 32 32 32 33 33 33 32 32 32 31 30 30 29 30 30 30 32 31 29 27
32 32 33 32 33 32 33 33 34 35 35 35 35 35 34 34 33 34 34 33 34 34 35 34 34 34 34 35 36 39 37 36 35 35 36 37 37 37 36 35 35 35 35 35 36 34 34 33 33 33 35 34 34 33 34 34 34 34 33 32 32 32 33 33 33 34 32 32 31 31 31 32 33 32 31 30 28 29 29 30 29 29 28 28 29
33 33 33 33 34 33 33 34 34 35 36 35 36 35 34 34 33 33 34 34 33 33 34 34 34 34 34 35 35 34 34 35 35 35 36 36 36 37 37 35 35 35 35 36 37 35 35 37 37 37 36 34 35 36 37 38 36 35 34 33 32 33 37 36 34 37 33 33 31 31 31 31 31 30 29 28 28 28 29 30 30 28 27 28 27
33 33 33 34 34 34 34 35 34 34 35 34 35 34 34 35 35 35 34 34 35 35 34 34 34 34 35 35 34 34 34 34 35 35 36 36 36 37 37 37 35 35 35 38 38 36 38 39 40 40 40 39 38 34 35 36 36 35 35 37 38 38 37 36 36 34 32 32 32 31 31 31 29 29 28 29 29 30 28 27 29 27 26 27 27
33 31 29 31 34 34 34 34 35 35 34 35 34 34 35 35 34 34 34 34 35 35 35 37 35 34 35 35 34 34 33 34 34 35 35 36 36 35 36 40 38 37 39 42 42 42 40 38 40 42 42 39 36 35 35 39 38 36 35 35 36 36 35 34 34 36 33 33 32 31 30 30 31 29 28 27 27 27 27 28 28 27 27 27 27
34 33 35 35 34 35 35 35 34 34 34 34 35 34 34 34 34 34 34 35 35 35 35 36 37 36 34 34 34 34 33 33 34 35 34 35 35 36 39 39 38 40 39 42 41 41 41 41 41 41 41 42 40 37 38 37 38 37 38 37 34 34 34 33 33 33 33 32 31 30 30 29 29 28 28 28 30 28 26 26 25 26 28 28 26
34 34 34 34 35 35 35 35 35 34 32 33 34 35 34 35 35 35 35 35 34 35 35 36 36 39 37 36 35 34 34 33 34 34 35 35 35 37 40 39 40 41 39 40 40 40 40 40 39 41 41 41 39 39 37 38 39 39 37 38 37 35 34 33 33 31 31 31 30 30 30 29 29 29 28 27 27 27 27 27 26 27 27 28 28
35 34 34 35 36 36 35 34 33 32 33 34 34 34 35 35 35 35 34 34 33 34 36 35 35 35 35 35 37 36 35 35 33 34 34 35 36 37 37 37 38 39 39 40 40 39 39 36 38 40 41 42 40 39 38 37 37 37 36 37 35 34 34 33 33 33 32 31 30 30 30 29 29 28 28 27 26 25 25 25 25 25 27 29 27
35 30 29 30 32 35 33 32 33 33 34 34 34 34 33 34 35 34 34 34 34 34 34 35 35 34 34 34 35 36 36 34 32 32 31 32 34 35 36 37 37 38 38 38 39 39 39 39 39 40 41 41 40 40 38 35 36 35 35 34 33 33 33 32 32 31 31 30 30 29 29 28 28 28 27 26 25 25 25 27 26 26 25 25 25
35 35 34 32 33 33 32 33 33 33 33 33 34 34 34 34 34 34 34 34 34 34 35 34 34 34 33 33 33 34 34 33 33 33 31 31 31 33 33 33 33 34 35 37 38 38 38 38 38 38 39 40 40 39 38 37 35 34 34 33 33 32 32 31 31 31 30 30 29 28 28 28 27 27 26 24 24 25 26 26 26 27 27 27 26
35 36 34 32 32 32 33 34 34 33 34 34 35 35 34 34 34 34 34 34 33 33 34 34 33 33 32 31 31 31 34 33 34 34 33 32 32 33 32 33 33 34 34 34 35 36 36 36 36 35 35 35 36 36 37 36 34 34 33 32 32 31 31 31 31 31 30 30 29 28 28 28 27 26 25 25 27 26 26 26 27 27 27 27 27
37 36 34 33 33 33 33 34 34 34 34 34 34 34 34 34 34 34 33 33 32 33 33 34 34 33 32 31 31 31 33 33 32 33 34 33 33 32 32 33 32 33 33 33 34 33 33 33 34 33 33 33 34 34 35 34 33 33 33 32 32 31 30 30 30 30 30 29 29 29 28 27 26 25 26 28 26 26 26 26 25 26 26 27 27
37 35 34 33 33 34 34 35 35 34 34 35 34 33 34 34 35 34 33 33 33 32 33 33 33 33 32 31 31 31 33 32 31 32 32 32 32 32 31 31 32 33 33 34 34 33 32 31 31 31 31 31 32 32 32 32 32 32 31 32 31 31 30 30 30 29 29 29 29 29 29 28 27 26 27 26 26 26 25 27 27 26 27 27 27
38 37 35 34 34 34 35 35 34 33 33 31 32 32 33 33 33 33 33 33 33 32 32 32 32 32 32 32 32 32 31 31 31 31 31 31 31 30 31 31 31 31 31 31 31 31 30 30 29 30 31 30 32 32 31 31 31 31 31 30 30 31 30 30 29 29 29 29 28 28 28 28 27 27 27 27 27 27 27 27 27 26 26 26 26
38 35 33 33 35 34 33 33 33 32 32 32 33 33 32 32 32 32 33 32 32 32 32 32 32 32 32 32 32 32 31 31 30 31 31 31 30 30 30 30 30 29 29 29 29 29 29 28 29 29 29 29 30 30 30 30 31 31 31 31 30 30 29 29 28 28 28 29 27 27 27 27 27 26 27 28 28 27 25 26 26 27 27 26 26
34 34 33 32 32 32 33 33 33 33 32 32 33 33 33 33 33 33 33 33 32 32 32 32 32 32 31 32 32 31 31 31 31 30 30 30 30 30 30 29 29 29 27 27 27 28 27 28 27 27 27 28 29 29 29 29 29 29 29 28 27 27 26 27 27 27 27 28 27 27 27 27 27 27 27 27 26 26 26 27 28 27 27 27 27
35 33 34 32 32 32 34 34 33 33 33 32 32 32 32 33 33 33 32 33 33 33 33 33 32 32 32 32 32 32 31 31 31 30 30 30 30 30 29 29 28 27 26 27 27 26 26 26 26 26 26 27 27 27 27 26 26 26 26 26 27 27 28 27 28 28 28 28 27 26 26 26 27 27 26 27 27 27 28 27 27 28 28 27 27
34 33 33 33 33 32 33 33 34 32 33 32 32 32 32 33 33 33 33 34 34 33 32 32 32 32 32 33 32 32 32 31 31 30 30 30 29 28 29 28 26 25 25 25 24 24 24 24 24 24 24 24 24 24 24 24 24 24 23 24 24 24 24 26 27 27 27 27 27 28 28 26 26 26 26 27 28 26 26 26 27 27 27 27 27
35 34 34 34 33 32 32 32 33 33 34 33 33 33 32 33 33 34 34 34 34 33 32 32 32 32 32 32 32 32 31 31 31 30 29 29 29 28 28 27 26 25 23 22 22 23 22 22 22 22 23 23 23 23 23 24 23 23 24 23 22 23 23 24 24 24 25 26 26 26 26 26 26 26 26 26 26 26 27 27 27 27 27 27 26
35 36 35 33 33 33 33 33 34 34 34 34 33 33 34 33 34 34 33 33 32 32 31 32 32 32 33 32 33 32 32 32 31 30 30 30 29 28 26 25 25 24 23 23 22 22 21 22 23 22 23 22 22 23 22 22 22 22 22 22 21 21 22 22 23 23 24 24 25 25 26 26 26 26 25 26 26 26 27 27 27 27 27 27 27
36 35 33 33 33 34 33 34 34 34 34 33 33 34 34 34 34 34 32 31 30 30 30 30 30 31 31 32 32 33 32 32 31 31 31 30 29 27 26 25 24 24 24 23 22 22 22 23 21 21 22 21 21 21 20 20 20 21 21 21 21 21 21 22 23 22 23 25 26 26 26 26 27 27 27 26 27 27 27 27 28 27 26 26 26